Location: Newark
(52.1031°N, 9.3600°E)
Time: 12:30:07
(UTC+00:00)

nSIGHT-1 - Pass Details

Date: 24 December 2019
Orbit: 316 x 318 km, 51.6° (Epoch: 17 January)

Event Time Altitude Azimuth Distance (km) Brightness Sun altitude
Exits shadow 05:31:45 23° 205° (SSW) 731 ? -16.8°
Drops below altitude 10° 05:33:53 10° 153° (SSE) 1,216 ? -16.5°
Sets 05:36:02 0° 138° (SE) 2,042 ? -16.2°
